Home   Weather   Tokyo   Past weeks

Flag for Japan Past Weather in Tokyo, Japan — Yesterday and Last 2 Weeks

Now
65 °F

Mild.


Feels Like: 65 °F
Forecast: 64 / 67 °F
Wind: 5 mph from Southeast

Location: Tokyo

Current Time: May 26, 2017 at 1:13:20 am

Latest Report: May 26, 2017 at 12:00 am


Visibility: N/A

Pressure: 29.72 "Hg

Humidity: 91%

Dew Point: 63 °F

Location of TokyoLocation

Past Weather in Tokyo — Graph

°F

Tokyo Temperature Yesterday

Maximum temperature yesterday: 73 °F (at 1:00 pm)
Minimum temperature yesterday: 65 °F (at 11:00 pm)
Average temperature yesterday: 70 °F

High & Low Weather Summary for the Past Weeks

 TemperatureHumidityPressure
High86 °F (May 21, 2:00 pm)100% (May 11, 4:00 am)30.06 "Hg (May 11, 4:00 am)
Low58 °F (May 18, 11:00 pm)36% (May 21, 2:00 pm)29.64 "Hg (May 13, 5:00 pm)
Average68 °F75%29.87 "Hg
* Reported May 10 11:00 pm — May 25 11:00 pm, Tokyo. Weather by CustomWeather, © 2017

Note: Actual official high and low records may vary slightly from our data, if they occured in-between our weather recording intervals... More about our weather records

Advertising

Tokyo Weather History for the Previous 24 Hours

Scroll right to see more
 ConditionsComfort  
Time TempWeatherWind HumidityBarometerVisibility
11:00 pm
Thu, May 25
65 °FMild.3 mph95%29.73 "HgN/A
10:00 pm66 °FMild.3 mph90%29.73 "HgN/A
9:00 pm69 °FOvercast.6 mph82%29.73 "Hg9 mi
8:00 pm70 °FMild.5 mph77%29.71 "HgN/A
7:00 pm70 °FMild.5 mph81%29.71 "HgN/A
6:00 pm71 °FOvercast.8 mph75%29.69 "Hg12 mi
5:00 pm71 °FMild.7 mph73%29.67 "HgN/A
4:00 pm71 °FMild.6 mph71%29.70 "HgN/A
3:00 pm70 °FOvercast.10 mph75%29.70 "Hg9 mi
2:00 pm73 °FMild.9 mph70%29.70 "HgN/A
1:00 pm73 °FMild.12 mph75%29.71 "HgN/A
12:00 pm73 °FOvercast.3 mph81%29.71 "Hg9 mi
11:00 am72 °FMild.7 mph86%29.73 "HgN/A
10:00 am71 °FMild.6 mph82%29.72 "HgN/A
9:00 am71 °FSprinkles. Overcast.3 mph87%29.73 "Hg9 mi
8:00 am70 °FMild.6 mph90%29.74 "HgN/A
7:00 am69 °FMild.5 mph95%29.74 "HgN/A
6:00 am68 °FSprinkles. Overcast.5 mph97%29.74 "Hg9 mi
5:00 am67 °FMild.3 mph99%29.73 "HgN/A
4:00 am68 °FMild.2 mph97%29.73 "HgN/A
3:00 am69 °FSprinkles. Overcast.5 mph93%29.74 "Hg9 mi
2:00 am70 °FMild.7 mph85%29.75 "HgN/A
1:00 am71 °FMild.7 mph84%29.76 "HgN/A
Weather by CustomWeather, © 2017

See weather overviewHow to use our weather pages